Chrysopouli, Greece

5:34 AM EEST on September 23, 2017 (GMT +0300)
Megas Alexandros

Weather History for LGKV - March, 2013

Change the Weather History Date:

Friday, March 22, 2013

  Actual Average Record
Temperature  
Mean Temperature 52 °F -  
Max Temperature 57 °F 53 °F 68 °F (2012)
Min Temperature 48 °F 40 °F 32 °F (1998)
Degree Days  
Heating Degree Days 12    
Growing Degree Days 2 (Base 50)    
Moisture  
Dew Point 36 °F    
Average Humidity 56    
Maximum Humidity 88    
Minimum Humidity 26    
Precipitation  
Precipitation 0.00 in - - ()
Sea Level Pressure  
Sea Level Pressure 29.47 in    
Wind  
Wind Speed 12 mph ()    
Max Wind Speed 29 mph    
Max Gust Speed 40 mph    
Visibility 6.2 miles    
Events Rain    
Averages and records for this station are not official NWS values.
T = Trace of Precipitation, MM = Missing Value Source: Averaged Metar Reports

Daily Weather History Graph

Daily Weather History Graph

Search for Another Location

Airport or City:

Trip Planner

Search our weather history database for the weather conditions in past years. The results will help you decide how hot, cold, wet, or windy it might be!

Date:

Astronomy

Mar. 22, 2013 Rise Set
Actual Time 6:21 AM EET 6:35 PM EET
Civil Twilight 5:54 AM EET 7:03 PM EET
Nautical Twilight 5:22 AM EET 7:35 PM EET
Astronomical Twilight 4:49 AM EET 8:08 PM EET
Moon 1:42 PM EET (3/22) 3:12 AM EET (3/22)
Length of Visible Light 13h 09m
Length of Day
12h 14m
Waxing Gibbous, 75% of the Moon is Illuminated
Mar 22
Waxing Gibbous
Mar 27
Full
Apr 3
Last Quarter
Apr 10
New
Apr 18
First Quarter

Hourly Weather History & Observations

Time (EET) Temp. Dew Point Humidity Pressure Visibility Wind Dir Wind Speed Gust Speed Precip Events Conditions
5:20 AM 53.6 °F 44.6 °F 72% 29.39 in 6.2 mi West 10.4 mph - N/A   Mostly Cloudy
5:50 AM 53.6 °F 44.6 °F 72% 29.39 in 6.2 mi NNW 5.8 mph - N/A Rain Light Rain
6:20 AM 53.6 °F 44.6 °F 72% 29.39 in 6.2 mi NW 5.8 mph - N/A Rain Light Rain
6:50 AM 50.0 °F 46.4 °F 87% 29.42 in 6.2 mi WNW 13.8 mph - N/A Rain Light Rain
7:20 AM 50.0 °F 46.4 °F 87% 29.42 in 6.2 mi West 12.7 mph - N/A   Mostly Cloudy
7:50 AM 51.8 °F 41.0 °F 67% 29.42 in 6.2 mi ENE 4.6 mph - N/A   Mostly Cloudy
8:20 AM 51.8 °F 41.0 °F 67% 29.44 in 6.2 mi SE 6.9 mph - N/A   Mostly Cloudy
8:50 AM 51.8 °F 41.0 °F 67% 29.47 in 6.2 mi East 4.6 mph - N/A   Mostly Cloudy
9:20 AM 51.8 °F 41.0 °F 67% 29.47 in 6.2 mi East 5.8 mph - N/A   Mostly Cloudy
9:50 AM 51.8 °F 48.2 °F 88% 29.47 in 6.2 mi East 8.1 mph - N/A   Mostly Cloudy
10:20 AM 51.8 °F 48.2 °F 88% 29.47 in 6.2 mi SSE 6.9 mph - N/A   Mostly Cloudy
10:50 AM 51.8 °F 46.4 °F 82% 29.47 in 6.2 mi SSE 8.1 mph - N/A   Mostly Cloudy
11:20 AM 51.8 °F 46.4 °F 82% 29.47 in 6.2 mi SE 6.9 mph - N/A   Scattered Clouds
11:50 AM 55.4 °F 37.4 °F 51% 29.47 in 6.2 mi West 15.0 mph - N/A   Scattered Clouds
12:20 PM 55.4 °F 37.4 °F 51% 29.47 in 6.2 mi West 21.9 mph - N/A   Partly Cloudy
12:50 PM 55.4 °F 37.4 °F 51% 29.47 in 6.2 mi West 23.0 mph - N/A   Partly Cloudy
1:20 PM 55.4 °F 37.4 °F 51% 29.44 in 6.2 mi West 26.5 mph - N/A   Partly Cloudy
1:50 PM 57.2 °F 28.4 °F 33% 29.44 in 6.2 mi West 23.0 mph - N/A   Partly Cloudy
2:20 PM 57.2 °F 28.4 °F 33% 29.44 in 6.2 mi West 21.9 mph - N/A   Partly Cloudy
2:50 PM 57.2 °F 28.4 °F 33% 29.44 in 6.2 mi West 26.5 mph - N/A   Partly Cloudy
3:20 PM 57.2 °F 28.4 °F 33% 29.44 in 6.2 mi West 28.8 mph 40.3 mph N/A   Partly Cloudy
3:50 PM 53.6 °F 19.4 °F 26% 29.47 in 6.2 mi WNW 27.6 mph 39.1 mph N/A   Partly Cloudy
4:20 PM 53.6 °F 19.4 °F 26% 29.50 in 6.2 mi WNW 24.2 mph 39.1 mph N/A   Partly Cloudy
4:50 PM 53.6 °F 28.4 °F 38% 29.50 in 6.2 mi West 27.6 mph 39.1 mph N/A   Partly Cloudy
5:20 PM 53.6 °F 28.4 °F 38% 29.53 in 6.2 mi West 24.2 mph 35.7 mph N/A   Partly Cloudy
5:50 PM 53.6 °F 28.4 °F 38% 29.53 in 6.2 mi West 18.4 mph - N/A   Partly Cloudy
6:20 PM 53.6 °F 28.4 °F 38% 29.56 in 6.2 mi West 16.1 mph - N/A   Partly Cloudy
6:50 PM 53.6 °F 28.4 °F 38% 29.56 in 6.2 mi West 8.1 mph - N/A   Partly Cloudy
7:20 PM 48.2 °F 30.2 °F 50% 29.56 in 6.2 mi SW 8.1 mph - N/A   Partly Cloudy
7:50 PM 48.2 °F 30.2 °F 50% 29.56 in 6.2 mi SW 8.1 mph - N/A   Partly Cloudy